Location: ??????????
(48.4699°N, 37.9573°E)
Time: 01:42:48
(UTC+00:00)

Meteor 2-13 Rocket - Pass Details

Date: 20 January 2021
Orbit: 936 x 957 km, 82.5° (Epoch: 24 February)

Event Time Altitude Azimuth Distance (km) Brightness Sun altitude
Rises 15:44:22 0° 176° (S) 3,601 7.6 -15.6°
Reaches altitude 10° 15:46:51 10° 173° (S) 2,663 6.9 -16.0°
Maximum altitude 15:52:51 63° 94° (E) 1,062 4.4 -17.0°
Drops below altitude 10° 15:58:55 10° 15° (NNE) 2,695 6.6 -18.0°
Sets 16:01:27 0° 13° (NNE) 3,647 7.3 -18.4°
